CW6490 Weather Reports


Display with metric or nautical units.
time (UTC)temp
F
wind
direction
speed
MPH
gust
MPH
rain 1hr
in
rain 24hr
in
rain mn
in
humidity
%
barometer
mb
20260904002847 103 303 1.0 3.0 0.00 0.00 0.00 29 1008.5
20260904001824 103 303 0.0 6.0 0.00 0.00 0.00 30 1008.4
20260904000816 102 303 2.0 5.0 0.00 0.00 0.00 30 1008.5
20260903235847 101 303 1.0 2.0 0.00 0.00 0.00 30 1008.5
20260903234819 102 303 1.0 4.0 0.00 0.00 0.00 29 1008.7
20260903233812 103 303 1.0 3.0 0.00 0.00 0.00 30 1008.8
20260903232825 102 303 2.0 4.0 0.00 0.00 0.00 30 1008.8
20260903231821 102 303 1.0 4.0 0.00 0.00 0.00 30 1008.8
20260903230812 102 303 2.0 3.0 0.00 0.00 0.00 29 1008.9
20260903225844 101 303 1.0 5.0 0.00 0.00 0.00 30 1009.1
20260903224837 101 303 1.0 5.0 0.00 0.00 0.00 30 1009.3
20260903223848 102 303 0.0 3.0 0.00 0.00 0.00 31 1009.3
20260903222820 102 303 2.0 6.0 0.00 0.00 0.00 30 1009.5
20260903221814 102 303 2.0 4.0 0.00 0.00 0.00 30 1009.6
20260903220826 104 303 1.0 5.0 0.00 0.00 0.00 30 1009.7
20260903215818 103 303 0.0 6.0 0.00 0.00 0.00 30 1009.9
20260903214852 104 303 1.0 3.0 0.00 0.00 0.00 29 1009.9
20260903213823 104 303 1.0 5.0 0.00 0.00 0.00 29 1010.1
20260903212819 103 303 0.0 3.0 0.00 0.00 0.00 29 1010.4
20260903211814 103 303 0.0 5.0 0.00 0.00 0.00 30 1010.6
20260903210825 104 303 1.0 8.0 0.00 0.00 0.00 29 1010.7
20260903205818 103 303 1.0 4.0 0.00 0.00 0.00 30 1010.8
20260903204852 102 303 2.0 8.0 0.00 0.00 0.00 31 1011.1
20260903203822 103 303 1.0 4.0 0.00 0.00 0.00 29 1011.2
20260903202821 102 303 2.0 8.0 0.00 0.00 0.00 30 1011.4
20260903201853 102 303 1.0 5.0 0.00 0.00 0.00 29 1011.4
20260903200824 100 303 3.0 8.0 0.00 0.00 0.00 30 1011.6
20260903195817 102 303 1.0 5.0 0.00 0.00 0.00 33 1011.7
20260903194831 100 303 2.0 8.0 0.00 0.00 0.00 32 1011.8
20260903193843 100 303 2.0 5.0 0.00 0.00 0.00 32 1011.9
20260903192818 100 303 1.0 4.0 0.00 0.00 0.00 32 1012.0
20260903191832 101 303 1.0 4.0 0.00 0.00 0.00 32 1012.3
20260903190825 100 303 1.0 6.0 0.00 0.00 0.00 34 1012.5
20260903185818 100 303 2.0 9.0 0.00 0.00 0.00 33 1012.6
20260903184816 99 303 2.0 5.0 0.00 0.00 0.00 36 1012.7
20260903183830 100 303 1.0 5.0 0.00 0.00 0.00 36 1013.0
20260903182823 99 303 1.0 3.0 0.00 0.00 0.00 36 1013.2
20260903181817 99 303 0.0 3.0 0.00 0.00 0.00 36 1013.3
20260903180849 98 303 2.0 6.0 0.00 0.00 0.00 37 1013.5
20260903175821 98 303 1.0 6.0 0.00 0.00 0.00 38 1013.6
20260903174818 99 303 0.0 5.0 0.00 0.00 0.00 36 1013.7
20260903173830 98 303 1.0 5.0 0.00 0.00 0.00 39 1013.8
20260903172824 96 303 2.0 5.0 0.00 0.00 0.00 39 1013.9
20260903171817 97 303 2.0 5.0 0.00 0.00 0.00 39 1013.8
20260903170813 98 303 2.0 5.0 0.00 0.00 0.00 39 1013.9
20260903165824 97 303 1.0 4.0 0.00 0.00 0.00 40 1013.9
20260903164818 94 303 1.0 9.0 0.00 0.00 0.00 43 1013.9
20260903163832 95 303 2.0 6.0 0.00 0.00 0.00 42 1014.0
20260903162824 95 303 2.0 5.0 0.00 0.00 0.00 43 1014.0
20260903161819 94 303 0.0 3.0 0.00 0.00 0.00 45 1014.0
20260903160852 94 303 1.0 3.0 0.00 0.00 0.00 45 1014.1
20260903155822 93 303 1.0 3.0 0.00 0.00 0.00 46 1014.1
20260903154817 92 303 0.0 3.0 0.00 0.00 0.00 49 1014.1
20260903153832 91 303 1.0 3.0 0.00 0.00 0.00 49 1014.1
20260903152825 90 303 1.0 3.0 0.00 0.00 0.00 51 1014.2
20260903151822 90 303 2.0 3.0 0.00 0.00 0.00 53 1014.2
20260903150815 89 303 1.0 2.0 0.00 0.00 0.00 55 1014.1
20260903145828 88 303 1.0 3.0 0.00 0.00 0.00 56 1014.1
20260903144843 87 303 1.0 3.0 0.00 0.00 0.00 57 1014.3
20260903143815 87 303 0.0 1.0 0.00 0.00 0.00 57 1014.2
20260903142828 87 303 0.0 1.0 0.00 0.00 0.00 58 1014.2
20260903141824 86 303 0.0 2.0 0.00 0.00 0.00 60 1014.2
20260903140818 85 303 0.0 1.0 0.00 0.00 0.00 63 1014.1
20260903135831 83 303 0.0 0.0 0.00 0.00 0.00 65 1013.9
20260903134826 83 303 0.0 1.0 0.00 0.00 0.00 65 1013.8
20260903133823 82 303 1.0 2.0 0.00 0.00 0.00 65 1013.7
20260903132816 82 303 0.0 0.0 0.00 0.00 0.00 64 1013.4
20260903131828 82 303 0.0 1.0 0.00 0.00 0.00 64 1013.3
20260903130821 82 303 0.0 0.0 0.00 0.00 0.00 63 1013.3
20260903125853 82 303 0.0 1.0 0.00 0.00 0.00 62 1013.2
20260903124844 83 303 0.0 2.0 0.00 0.00 0.00 61 1013.1
20260903123819 83 303 0.0 2.0 0.00 0.00 0.00 60 1013.0
20260903122835 83 303 0.0 1.0 0.00 0.00 0.00 58 1012.9
20260903121826 83 303 0.0 0.0 0.00 0.00 0.00 56 1012.8
20260903120840 83 303 0.0 0.0 0.00 0.00 0.00 55 1012.7
20260903115832 83 303 0.0 2.0 0.00 0.00 0.00 55 1012.7
20260903114828 83 303 0.0 1.0 0.00 0.00 0.00 54 1012.6
20260903113821 82 303 0.0 0.0 0.00 0.00 0.00 53 1012.5
20260903112853 83 303 0.0 0.0 0.00 0.00 0.00 54 1012.4
20260903111824 82 303 0.0 2.0 0.00 0.00 0.00 55 1012.4
20260903110816 82 303 1.0 3.0 0.00 0.00 0.00 56 1012.4
20260903105813 82 303 0.0 1.0 0.00 0.00 0.00 57 1012.4
20260903104827 82 303 0.0 0.0 0.00 0.00 0.00 58 1012.4
20260903103821 82 303 0.0 0.0 0.00 0.00 0.00 57 1012.3
20260903102814 83 303 0.0 0.0 0.00 0.00 0.00 57 1012.3
20260903101826 83 303 0.0 1.0 0.00 0.00 0.00 57 1012.2
20260903100825 84 303 0.0 0.0 0.00 0.00 0.00 57 1012.3
20260903095817 84 303 0.0 0.0 0.00 0.00 0.00 56 1012.4
20260903094831 84 303 0.0 1.0 0.00 0.00 0.00 55 1012.3
20260903093823 84 303 0.0 2.0 0.00 0.00 0.00 55 1012.4
20260903092818 84 303 0.0 1.0 0.00 0.00 0.00 55 1012.4
20260903091814 85 303 0.0 0.0 0.00 0.00 0.00 54 1012.3
20260903090827 85 303 0.0 0.0 0.00 0.00 0.00 54 1012.2
20260903085821 85 303 0.0 0.0 0.00 0.00 0.00 54 1012.2
20260903084815 85 303 0.0 1.0 0.00 0.00 0.00 53 1012.1
20260903083825 86 303 0.0 0.0 0.00 0.00 0.00 53 1012.1
20260903082822 86 303 0.0 0.0 0.00 0.00 0.00 51 1012.1
20260903081816 87 303 0.0 0.0 0.00 0.00 0.00 50 1012.2
20260903080828 88 303 0.0 1.0 0.00 0.00 0.00 49 1012.2
20260903075820 88 303 0.0 1.0 0.00 0.00 0.00 49 1012.2
20260903074814 89 303 0.0 1.0 0.00 0.00 0.00 47 1012.3
20260903073831 89 303 0.0 3.0 0.00 0.00 0.00 47 1012.2
20260903072825 89 303 1.0 3.0 0.00 0.00 0.00 47 1012.2
20260903071838 90 303 0.0 2.0 0.00 0.00 0.00 46 1012.2
20260903070829 90 303 1.0 2.0 0.00 0.00 0.00 45 1012.2
20260903065843 90 303 0.0 1.0 0.00 0.00 0.00 41 1012.2
20260903064816 91 303 0.0 0.0 0.00 0.00 0.00 34 1012.1
20260903063814 92 303 0.0 0.0 0.00 0.00 0.00 32 1012.0
20260903062826 92 303 0.0 2.0 0.00 0.00 0.00 31 1011.9
20260903061821 92 303 1.0 2.0 0.00 0.00 0.00 33 1011.8
20260903060813 92 303 0.0 3.0 0.00 0.00 0.00 39 1011.9
20260903055825 92 303 0.0 1.0 0.00 0.00 0.00 41 1011.9
20260903054821 92 303 0.0 0.0 0.00 0.00 0.00 40 1011.9
20260903053833 92 303 0.0 1.0 0.00 0.00 0.00 40 1011.8
20260903052825 92 303 0.0 1.0 0.00 0.00 0.00 40 1011.9
20260903051817 92 303 0.0 1.0 0.00 0.00 0.00 40 1011.8
20260903050829 93 303 0.0 0.0 0.00 0.00 0.00 40 1011.8
20260903045846 94 303 0.0 0.0 0.00 0.00 0.00 39 1011.8
20260903044818 94 303 0.0 0.0 0.00 0.00 0.00 38 1011.8
20260903043812 94 303 0.0 2.0 0.00 0.00 0.00 37 1011.7
20260903042826 95 303 0.0 3.0 0.00 0.00 0.00 37 1011.8
20260903041838 95 303 0.0 2.0 0.00 0.00 0.00 36 1011.8
20260903040814 95 303 0.0 2.0 0.00 0.00 0.00 35 1011.8
20260903035827 96 303 0.0 3.0 0.00 0.00 0.00 34 1011.6
20260903034819 96 303 1.0 3.0 0.00 0.00 0.00 34 1011.4
20260903033831 96 303 1.0 3.0 0.00 0.00 0.00 33 1011.4
20260903032825 96 303 1.0 3.0 0.00 0.00 0.00 33 1011.3
20260903031818 96 303 1.0 4.0 0.00 0.00 0.00 33 1011.2
20260903030814 97 303 2.0 6.0 0.00 0.00 0.00 33 1011.1
20260903025847 97 303 1.0 4.0 0.00 0.00 0.00 33 1010.9
20260903024839 97 303 1.0 5.0 0.00 0.00 0.00 32 1010.9
20260903023830 97 303 1.0 6.0 0.00 0.00 0.00 32 1010.9
20260903022823 97 303 2.0 6.0 0.00 0.00 0.00 32 1010.8
20260903021823 98 303 2.0 5.0 0.00 0.00 0.00 32 1010.7
20260903020815 98 303 1.0 5.0 0.00 0.00 0.00 32 1010.5
20260903015847 98 303 2.0 5.0 0.00 0.00 0.00 32 1010.5
20260903014819 99 303 2.0 5.0 0.00 0.00 0.00 31 1010.5
20260903013830 99 303 2.0 5.0 0.00 0.00 0.00 30 1010.3
20260903012823 100 303 1.0 5.0 0.00 0.00 0.00 29 1010.3
20260903011819 101 303 1.0 5.0 0.00 0.00 0.00 28 1010.2
20260903010831 102 303 1.0 5.0 0.00 0.00 0.00 28 1010.3
20260903005822 103 303 1.0 8.0 0.00 0.00 0.00 27 1010.3
20260903004814 103 303 2.0 6.0 0.00 0.00 0.00 27 1010.3
20260903003812 103 303 1.0 4.0 0.00 0.00 0.00 28 1010.2